<< Return to Weather Page
Staples, MN
on Wednesday, May 9, 2012

Wednesday
Previous Day Next Day
Daily Summary
 ActualAverageRecord
Temperature
Mean Temperature - -  
Max Temperature 62 °F 61 °F 80 °F (2007)
Min Temperature 39 °F 39 °F 32 °F (1997)
Degree Days
Heating Degree Days 14    
Moisture
Dew Point 38 °F   
Average Humidity 64    
Maximum Humidity 100    
Minimum Humidity 30    
Precipitation
Precipitation 0.00 in - - ()
Wind
Wind Speed 3 mph   
Max Wind Speed 8 mph   
Max Gust Speed -   
Visibility 10 miles   
Events     
Averages and records for this station are not official NWS values.
Key: T is trace of precipitation, MM is missing value
Source: NWS Daily Summary
Seasonal Weather Averages
Time(CDT)TemperatureDew PointHumidity Pressure Visibility Wind DirectionWind SpeedGust SpeedPrecipitationEvents Conditions
12:13 AM 48.2 °F 44.6 °F 87% 30.03 in 10.0 miles North 4.6 mph - N/A   Overcast
12:33 AM 48.2 °F 44.6 °F 87% 30.04 in 10.0 miles North 4.6 mph - N/A   Overcast
12:53 AM 46.4 °F 44.6 °F 93% 30.04 in 10.0 miles North 4.6 mph - N/A   Overcast
1:13 AM 46.4 °F 44.6 °F 93% 30.04 in 10.0 miles North 5.8 mph - N/A   Overcast
1:33 AM 46.4 °F 44.6 °F 93% 30.04 in 10.0 miles North 4.6 mph - N/A   Overcast
1:53 AM 46.4 °F 44.6 °F 93% 30.05 in 10.0 miles North 5.8 mph - N/A   Overcast
2:13 AM 46.4 °F 42.8 °F 87% 30.04 in 10.0 miles North 3.5 mph - N/A   Overcast
2:33 AM 44.6 °F 42.8 °F 93% 30.05 in 10.0 miles North 4.6 mph - N/A   Mostly Cloudy
2:53 AM 44.6 °F 42.8 °F 93% 30.05 in 10.0 miles NNW 3.5 mph - N/A   Clear
3:13 AM 42.8 °F 42.8 °F 100% 30.05 in 10.0 miles NNW 3.5 mph - N/A   Clear
3:33 AM 42.8 °F 42.8 °F 100% 30.05 in 10.0 miles Calm Calm - N/A   Clear
3:53 AM 42.8 °F 41.0 °F 93% 30.05 in 10.0 miles NNW 3.5 mph - N/A   Clear
4:13 AM 42.8 °F 41.0 °F 93% 30.05 in 10.0 miles North 3.5 mph - N/A   Clear
4:33 AM 41.0 °F 39.2 °F 93% 30.05 in 10.0 miles North 3.5 mph - N/A   Clear
4:54 AM 41.0 °F 39.2 °F 93% 30.05 in 10.0 miles Calm Calm - N/A   Clear
5:13 AM 41.0 °F 39.2 °F 93% 30.05 in 10.0 miles North 3.5 mph - N/A   Clear
5:33 AM 39.2 °F 39.2 °F 100% 30.06 in 10.0 miles Calm Calm - N/A   Clear
6:13 AM 39.2 °F 39.2 °F 100% 30.07 in 10.0 miles Calm Calm - N/A   Clear
6:33 AM 39.2 °F 39.2 °F 100% 30.07 in 7.0 miles NNW 3.5 mph - N/A   Clear
7:13 AM 41.0 °F 41.0 °F 100% 30.07 in 10.0 miles Calm Calm - N/A   Clear
7:33 AM 42.8 °F 42.8 °F 100% 30.08 in 10.0 miles Calm Calm - N/A   Clear
7:54 AM 44.6 °F 42.8 °F 93% 30.08 in 10.0 miles Calm Calm - N/A   Clear
8:13 AM 46.4 °F 42.8 °F 87% 30.08 in 10.0 miles North 3.5 mph - N/A   Clear
8:33 AM 46.4 °F 42.8 °F 87% 30.08 in 10.0 miles Calm Calm - N/A   Clear
8:53 AM 48.2 °F 42.8 °F 82% 30.09 in 10.0 miles Calm Calm - N/A   Clear
9:13 AM 50.0 °F 42.8 °F 76% 30.08 in 10.0 miles Calm Calm - N/A   Clear
9:33 AM 51.8 °F 39.2 °F 62% 30.08 in 10.0 miles NNW 4.6 mph - N/A   Clear
9:54 AM 51.8 °F 37.4 °F 58% 30.08 in 10.0 miles NNE 3.5 mph - N/A   Clear
10:13 AM 51.8 °F 37.4 °F 58% 30.08 in 10.0 miles Calm Calm - N/A   Clear
10:33 AM 53.6 °F 37.4 °F 54% 30.08 in 10.0 miles Calm Calm - N/A   Clear
10:54 AM 53.6 °F 33.8 °F 47% 30.08 in 10.0 miles Calm Calm - N/A   Clear
11:13 AM 55.4 °F 35.6 °F 47% 30.07 in 10.0 miles West 3.5 mph - N/A   Clear
11:33 AM 55.4 °F 35.6 °F 47% 30.06 in 10.0 miles WNW 3.5 mph - N/A   Clear
11:54 AM 55.4 °F 33.8 °F 44% 30.06 in 10.0 miles South 5.8 mph - N/A   Clear
12:13 PM 57.2 °F 32.0 °F 38% 30.05 in 10.0 miles South 4.6 mph - N/A   Clear
12:33 PM 57.2 °F 33.8 °F 41% 30.04 in 10.0 miles West 4.6 mph - N/A   Clear
12:53 PM 57.2 °F 30.2 °F 36% 30.04 in 10.0 miles South 6.9 mph - N/A   Clear
1:13 PM 57.2 °F 30.2 °F 36% 30.03 in 10.0 miles Calm Calm - N/A   Clear
1:34 PM 57.2 °F 30.2 °F 36% 30.02 in 10.0 miles Calm Calm - N/A   Clear
1:53 PM 59.0 °F 32.0 °F 36% 30.02 in 10.0 miles South 5.8 mph - N/A   Clear
2:14 PM 59.0 °F 30.2 °F 34% 30.01 in 10.0 miles WSW 5.8 mph - N/A   Clear
2:33 PM 60.8 °F 33.8 °F 36% 30.00 in 10.0 miles Calm Calm - N/A   Clear
2:53 PM 60.8 °F 33.8 °F 36% 30.00 in 10.0 miles West 3.5 mph - N/A   Clear
3:13 PM 62.6 °F 33.8 °F 34% 29.99 in 10.0 miles WNW 6.9 mph - N/A   Clear
3:33 PM 62.6 °F 33.8 °F 34% 29.98 in 10.0 miles SSW 6.9 mph - N/A   Scattered Clouds
3:53 PM 62.6 °F 33.8 °F 34% 29.98 in 10.0 miles WSW 6.9 mph - N/A   Scattered Clouds
4:14 PM 62.6 °F 30.2 °F 30% 29.97 in 10.0 miles Calm Calm - N/A   Clear
4:33 PM 62.6 °F 30.2 °F 30% 29.96 in 10.0 miles West 3.5 mph - N/A   Clear
4:53 PM 62.6 °F 30.2 °F 30% 29.95 in 10.0 miles Calm Calm - N/A   Clear
5:13 PM 62.6 °F 32.0 °F 32% 29.95 in 10.0 miles SW 4.6 mph - N/A   Clear
5:34 PM 60.8 °F 33.8 °F 36% 29.95 in 10.0 miles South 4.6 mph - N/A   Clear
5:53 PM 60.8 °F 35.6 °F 39% 29.94 in 10.0 miles SW 3.5 mph - N/A   Clear
6:13 PM 62.6 °F 35.6 °F 37% 29.94 in 10.0 miles SSW 8.1 mph - N/A   Scattered Clouds
6:34 PM 60.8 °F 33.8 °F 36% 29.94 in 10.0 miles South 5.8 mph - N/A   Scattered Clouds
6:53 PM 60.8 °F 33.8 °F 36% 29.94 in 10.0 miles SW 5.8 mph - N/A   Clear
7:13 PM 60.8 °F 33.8 °F 36% 29.94 in 10.0 miles WSW 3.5 mph - N/A   Clear
7:34 PM 59.0 °F 35.6 °F 42% 29.93 in 10.0 miles SSW 5.8 mph - N/A   Clear
7:53 PM 57.2 °F 37.4 °F 48% 29.93 in 10.0 miles South 4.6 mph - N/A   Clear
8:13 PM 55.4 °F 37.4 °F 51% 29.93 in 10.0 miles South 3.5 mph - N/A   Clear
8:34 PM 55.4 °F 39.2 °F 54% 29.93 in 10.0 miles South 3.5 mph - N/A   Clear
8:53 PM 55.4 °F 37.4 °F 51% 29.93 in 10.0 miles Calm Calm - N/A   Clear
9:13 PM 53.6 °F 37.4 °F 54% 29.93 in 10.0 miles Calm Calm - N/A   Clear
9:33 PM 53.6 °F 37.4 °F 54% 29.94 in 10.0 miles Calm Calm - N/A   Clear
9:53 PM 50.0 °F 39.2 °F 66% 29.94 in 10.0 miles Calm Calm - N/A   Clear
10:14 PM 48.2 °F 39.2 °F 71% 29.94 in 10.0 miles Calm Calm - N/A   Clear
10:33 PM 46.4 °F 39.2 °F 76% 29.94 in 10.0 miles South 3.5 mph - N/A   Clear
10:53 PM 48.2 °F 39.2 °F 71% 29.93 in 10.0 miles SSE 3.5 mph - N/A   Clear
11:14 PM 46.4 °F 39.2 °F 76% 29.93 in 10.0 miles Calm Calm - N/A   Clear
11:33 PM 44.6 °F 39.2 °F 81% 29.92 in 10.0 miles SSE 3.5 mph - N/A   Clear
11:53 PM 42.8 °F 39.2 °F 87% 29.92 in 10.0 miles Calm Calm - N/A   Clear

Astronomy

Sunrise: 05:52 AM (CDT) Moon Rise: No Moon Rise /
Sunset: 08:39 PM (CDT) Moon Set: 09:05 AM (CDT) 5 / 9
Moon Phase
May. 09 May. 12 May. 20 May. 28 Jun. 04

Powered by the Weather Underground, Inc.